Wind_Speed
46 48 50 50 50 51 51 52 58 55 60 56 61 63 63 63 63 63 63 64 65 64 63 62 61 62 62 61 60 60 61 60 60 60 60 62 64 65 66 66 67 66 64 62
55 55 55 58 57 55 55 56 61 61 60 62 63 63 64 66 67 65 64 64 63 64 63 64 64 64 65 65 64 64 62 63 64 64 65 67 68 69 70 70 71 71 71 69
60 59 62 64 60 63 61 61 64 63 64 64 64 65 65 66 66 66 66 66 67 66 65 64 64 65 65 65 65 66 65 66 66 67 67 67 68 69 70 70 69 69 68 68
60 62 66 66 65 67 68 67 67 68 68 68 68 67 66 68 67 68 69 70 70 68 66 67 68 69 68 67 69 70 69 69 69 68 66 68 68 69 70 70 69 69 67 67
63 64 64 65 66 65 65 67 69 70 71 71 71 70 68 67 70 71 71 74 75 75 74 74 73 74 73 73 71 72 72 70 70 70 69 68 68 69 70 71 70 70 70 68
63 65 66 67 66 66 69 74 74 73 73 72 72 75 70 71 73 73 73 75 77 78 78 78 76 76 75 76 77 74 73 72 71 71 70 69 69 70 70 72 72 73 72 73
64 66 68 66 67 69 72 72 71 71 72 72 73 75 77 78 77 77 77 77 78 78 79 79 79 80 79 79 78 79 77 74 71 70 68 68 68 68 69 71 71 72 72 71
64 68 69 69 70 71 73 72 73 72 74 75 76 78 78 79 80 79 78 78 79 80 79 78 76 77 77 75 74 73 70 67 64 60 58 58 59 60 62 64 66 67 68 67
65 68 69 70 70 69 71 73 74 77 78 79 80 81 81 82 82 82 80 78 76 74 70 66 64 64 64 60 59 58 56 53 51 50 50 50 53 54 57 58 59 59 61 60
68 67 67 67 68 70 72 72 73 74 76 78 79 78 78 77 78 77 75 72 65 59 55 50 46 45 48 47 46 46 46 45 44 45 46 49 53 55 57 57 58 58 58 57
67 67 69 69 72 74 75 74 76 76 78 77 78 77 77 75 71 66 61 52 47 44 41 42 43 43 40 40 42 45 47 49 52 54 58 60 60 61 61 59 61 59 54 55
66 68 72 71 74 74 77 76 76 77 76 73 70 68 64 60 56 53 50 49 48 46 46 46 45 44 44 45 49 52 56 56 55 62 53 50 48 44 44 47 50 52 53 55
69 71 73 73 73 72 73 73 70 68 65 63 62 59 58 57 55 54 53 53 55 54 53 54 53 51 51 54 56 59 62 64 61 50 49 44 42 42 41 37 44 45 47 47
68 71 71 68 69 68 67 64 61 60 59 59 58 58 58 60 60 59 58 60 61 62 60 61 61 61 60 62 65 67 66 58 50 48 46 42 41 40 41 41 37 37 40 41
64 66 68 68 66 62 59 57 58 59 60 59 59 59 58 58 57 56 57 57 57 59 59 59 60 60 61 60 58 54 50 48 46 44 43 40 39 39 38 37 35 33 33 35
61 62 62 60 56 55 56 58 62 61 58 56 54 53 55 55 54 53 52 52 54 53 48 46 46 48 50 48 44 42 39 39 40 40 37 36 35 34 33 34 32 29 27 29
59 55 55 56 58 58 56 55 52 49 48 48 48 47 40 38 41 42 44 44 44 41 41 41 44 45 43 39 38 35 33 31 32 33 32 32 32 33 32 31 29 26 23 26
54 55 56 54 50 47 43 41 39 40 40 38 36 36 36 36 36 36 36 35 32 32 29 33 35 35 32 30 30 28 27 27 29 30 31 32 33 33 30 25 23 20 18 22
52 48 42 40 39 39 39 37 36 36 35 33 35 34 32 31 31 31 30 29 29 28 24 27 28 27 26 25 26 26 28 30 30 31 30 27 25 24 21 17 15 14 17 21
40 35 33 32 31 33 33 32 34 33 32 32 29 28 28 27 27 27 27 25 24 26 22 20 21 21 22 24 28 29 29 27 22 18 17 16 16 15 14 8 7 12 18 18
29 30 31 32 33 34 32 29 28 28 28 29 30 30 30 30 30 29 28 26 25 25 24 21 22 22 24 26 25 20 14 12 13 13 13 12 10 7 5 8 14 14 13 12
32 31 33 34 35 30 26 25 26 26 28 29 31 32 32 32 31 30 30 28 25 26 24 18 21 24 22 13 7 9 12 14 14 12 9 7 6 6 7 7 8 8 8 9
33 34 34 33 31 27 24 25 26 28 30 32 32 32 32 32 29 26 23 26 23 18 16 17 19 11 6 7 10 13 15 16 14 12 11 10 9 8 7 5 4 4 5 7
35 34 33 32 31 30 28 27 28 31 31 33 34 32 32 30 27 29 25 20 16 14 15 11 6 8 9 11 12 14 17 18 18 17 15 12 10 8 5 3 2 4 5 6
35 34 33 32 31 30 28 27 28 30 30 32 34 31 30 30 26 21 19 16 14 12 7 10 9 10 10 11 12 15 15 16 17 16 15 16 15 12 11 10 9 8 7 7
34 34 33 31 31 30 29 29 29 29 31 31 32 30 27 22 16 19 17 17 9 10 10 10 10 11 12 11 11 12 12 13 14 15 15 16 18 18 17 16 14 12 11 11
32 32 32 31 31 31 30 30 29 30 31 31 29 27 21 17 17 14 14 8 11 8 9 10 11 12 11 11 11 10 9 9 10 10 11 12 12 12 13 15 17 18 17 15
Wind_Direction
283 284 284 288 291 291 294 294 292 298 297 298 295 299 300 300 298 296 295 293 293 293 293 292 292 291 289 286 283 283 283 282 280 279 275 273 273 273 272 272 273 273 272 271
289 288 290 291 294 295 294 292 293 294 296 293 298 299 297 295 294 294 295 295 293 291 292 290 289 287 286 286 286 285 283 280 279 277 277 276 275 274 273 273 273 272 271 270
290 290 289 290 293 293 293 293 295 295 296 297 297 295 295 294 294 294 293 291 290 290 290 288 286 286 285 286 284 282 281 279 278 278 277 276 276 276 275 274 274 274 273 271
288 287 290 294 295 295 296 297 298 298 298 298 297 297 298 297 297 295 294 293 293 293 291 290 289 288 287 285 283 282 282 281 280 278 276 275 274 273 273 272 272 272 272 272
287 288 290 291 292 294 294 295 295 296 296 297 297 297 298 298 295 293 292 293 293 293 293 291 291 289 289 288 287 286 285 284 282 281 280 277 275 274 273 272 271 270 269 269
289 288 292 294 296 297 295 293 295 296 297 297 297 296 295 293 293 293 294 293 293 293 293 292 291 291 291 289 288 288 287 286 285 284 283 281 279 277 275 273 271 270 269 269
289 289 293 294 293 292 290 294 294 294 294 293 294 294 294 294 295 295 295 294 291 290 291 291 291 290 290 290 290 289 288 288 286 285 283 281 280 278 275 274 272 271 269 268
288 290 292 292 291 291 293 294 294 293 295 294 295 296 296 296 296 295 293 292 291 291 290 290 289 288 288 288 288 289 289 288 287 286 285 282 279 276 275 273 271 270 269 268
288 289 290 291 293 293 293 293 295 295 296 297 298 298 298 297 297 296 295 294 292 291 290 289 289 289 291 292 291 290 288 286 285 282 281 279 278 276 275 274 273 271 269 267
285 287 288 289 291 292 293 295 295 296 297 297 297 297 296 295 295 293 292 292 294 294 294 294 292 293 295 294 290 287 287 287 285 283 282 280 277 277 278 278 276 274 271 269
286 287 289 292 293 294 295 297 298 299 299 298 298 298 297 296 296 298 298 299 298 297 295 291 290 289 285 285 285 288 289 291 293 290 285 281 281 282 281 281 278 274 271 270
290 290 292 293 294 298 300 301 300 300 300 300 299 299 299 301 302 301 299 298 298 297 290 291 292 286 287 290 291 294 297 296 297 302 297 293 290 285 280 279 277 274 270 267
291 293 295 297 299 300 300 302 302 301 299 299 299 302 303 303 302 300 298 296 296 296 295 295 296 296 295 290 287 290 294 299 302 297 297 294 292 291 286 276 276 273 271 269
296 297 299 301 302 303 302 300 298 297 299 301 303 303 302 300 299 296 294 293 293 291 289 289 290 292 290 286 286 290 295 297 296 296 295 295 297 294 290 285 277 269 269 266
299 302 302 303 303 303 303 302 298 299 301 300 300 302 300 297 298 298 296 295 291 289 289 290 291 290 291 292 293 293 293 292 292 293 295 297 296 294 291 287 283 276 265 259
301 303 305 307 307 305 302 301 300 302 301 300 302 300 299 299 298 297 297 296 294 293 295 294 293 294 294 297 297 295 293 294 295 296 297 296 294 291 288 287 283 276 268 254
309 308 308 306 304 304 304 303 305 306 305 307 307 306 304 303 301 302 301 298 299 299 294 293 292 292 295 296 296 300 301 300 297 297 297 296 294 290 288 286 286 278 266 247
310 311 309 307 308 309 310 312 313 312 313 314 310 307 305 304 305 303 302 303 304 298 302 294 297 302 304 303 302 305 307 307 306 304 299 295 293 292 291 287 282 271 248 220
309 309 311 312 316 318 320 322 318 315 317 314 313 316 316 315 313 313 312 312 308 311 309 303 305 308 308 310 310 314 313 309 306 304 304 302 299 295 292 287 273 249 210 198
313 316 319 323 328 326 325 323 320 322 324 327 331 333 333 332 330 330 327 327 321 318 322 315 310 310 312 314 317 316 315 316 320 322 322 321 316 303 289 277 209 180 174 186
321 325 329 331 336 339 337 334 331 333 334 331 332 331 329 328 326 324 321 319 314 317 321 322 317 317 320 319 320 324 338 356 360 359 356 356 6 28 73 137 150 160 176 197
326 329 334 335 333 338 335 332 333 334 334 334 334 331 330 329 325 323 321 320 317 314 318 311 313 319 323 338 8 10 3 6 3 357 359 13 39 74 106 128 159 185 210 225
327 327 325 325 330 331 327 325 329 331 333 334 330 329 331 331 327 324 320 317 317 324 317 318 321 337 39 38 22 26 22 14 19 24 23 25 29 33 47 65 98 127 151 169
320 317 318 320 320 319 318 317 319 324 328 332 332 329 331 331 330 327 328 326 321 323 326 339 57 75 41 44 48 46 45 42 42 46 48 43 39 40 43 65 155 190 196 199
312 311 314 313 310 314 316 313 318 321 324 327 330 329 330 332 336 337 338 336 338 343 52 88 61 59 59 64 66 62 59 53 50 49 46 45 48 54 55 63 72 79 90 111
307 308 311 311 310 313 316 313 312 316 321 323 326 328 330 332 332 342 340 340 13 87 86 64 68 71 73 71 65 62 61 59 54 51 52 54 57 63 69 71 78 88 99 112
306 307 307 310 311 312 314 314 315 315 317 321 326 328 332 330 325 339 341 50 91 88 77 76 78 70 64 64 63 58 53 52 53 53 57 60 63 68 73 78 81 83 87 91
Height
5722 5719 5714 5711 5707 5702 5699 5695 5687 5696 5681 5683 5670 5669 5664 5658 5653 5646 5641 5636 5632 5628 5623 5618 5615 5610 5606 5603 5600 5598 5597 5593 5590 5588 5584 5582 5580 5579 5577 5575 5574 5574 5573 5574
5708 5703 5701 5698 5695 5691 5685 5680 5673 5671 5673 5660 5659 5653 5648 5641 5634 5629 5625 5620 5615 5610 5606 5601 5596 5592 5588 5585 5584 5580 5577 5574 5570 5566 5563 5561 5559 5557 5555 5553 5553 5553 5552 5552
5690 5687 5682 5680 5681 5675 5670 5664 5659 5654 5651 5646 5641 5634 5628 5623 5618 5614 5607 5601 5595 5591 5588 5583 5578 5574 5570 5567 5563 5559 5556 5552 5548 5546 5544 5539 5538 5536 5533 5533 5531 5530 5530 5530
5673 5670 5666 5663 5658 5653 5648 5642 5638 5632 5627 5623 5619 5617 5611 5600 5597 5591 5585 5580 5574 5570 5566 5562 5556 5551 5547 5544 5541 5538 5534 5531 5527 5524 5521 5519 5516 5514 5512 5511 5509 5509 5508 5508
5653 5651 5653 5648 5643 5638 5631 5626 5619 5613 5607 5602 5597 5597 5595 5581 5574 5573 5566 5560 5554 5549 5544 5539 5532 5527 5524 5522 5517 5514 5511 5508 5504 5499 5497 5495 5493 5491 5489 5488 5487 5486 5486 5486
5637 5630 5632 5631 5624 5618 5609 5604 5600 5593 5587 5582 5576 5571 5578 5566 5558 5551 5545 5539 5533 5527 5521 5514 5509 5503 5500 5496 5493 5488 5485 5483 5480 5475 5471 5470 5467 5466 5465 5462 5463 5462 5462 5461
5617 5608 5613 5612 5607 5599 5592 5591 5583 5576 5571 5565 5558 5549 5548 5544 5540 5530 5524 5516 5508 5503 5496 5490 5484 5478 5475 5471 5467 5462 5460 5459 5456 5451 5448 5445 5443 5441 5439 5438 5437 5436 5437 5438
5599 5594 5592 5593 5584 5581 5574 5569 5559 5557 5548 5541 5536 5530 5525 5519 5510 5505 5501 5495 5485 5476 5471 5468 5463 5456 5453 5449 5442 5438 5435 5434 5431 5428 5424 5422 5419 5417 5413 5412 5411 5411 5411 5414
5588 5582 5571 5569 5565 5560 5552 5548 5542 5533 5529 5519 5513 5508 5501 5493 5487 5480 5473 5468 5461 5452 5448 5443 5439 5432 5430 5427 5422 5419 5415 5413 5410 5408 5405 5402 5398 5395 5392 5390 5389 5389 5388 5390
5568 5569 5562 5554 5549 5543 5535 5529 5524 5517 5509 5502 5491 5486 5478 5473 5466 5459 5452 5444 5437 5431 5428 5425 5422 5418 5414 5410 5406 5401 5399 5398 5396 5392 5390 5387 5381 5378 5375 5373 5370 5369 5369 5370
5554 5547 5542 5540 5529 5521 5516 5510 5502 5497 5487 5479 5470 5465 5454 5449 5443 5436 5431 5428 5422 5417 5414 5412 5409 5406 5403 5398 5392 5388 5385 5382 5379 5375 5370 5366 5363 5360 5357 5356 5350 5349 5351 5351
5537 5526 5519 5523 5513 5504 5492 5487 5479 5472 5467 5458 5446 5439 5435 5431 5426 5421 5417 5413 5409 5406 5400 5398 5395 5392 5389 5385 5378 5373 5369 5365 5361 5355 5351 5346 5342 5341 5339 5335 5331 5329 5330 5330
5518 5510 5503 5499 5494 5487 5477 5468 5458 5450 5444 5437 5432 5424 5420 5414 5410 5405 5402 5398 5394 5389 5386 5382 5379 5375 5375 5370 5363 5357 5351 5348 5344 5339 5333 5328 5325 5321 5320 5322 5315 5314 5312 5313
5496 5487 5487 5481 5473 5467 5457 5450 5442 5434 5427 5421 5415 5410 5405 5398 5394 5390 5387 5384 5378 5372 5368 5365 5361 5359 5357 5350 5345 5340 5336 5331 5325 5322 5317 5313 5310 5306 5302 5300 5301 5300 5297 5297
5484 5474 5465 5462 5458 5448 5440 5432 5423 5419 5414 5408 5402 5395 5389 5383 5379 5374 5369 5364 5357 5352 5349 5347 5343 5340 5336 5330 5324 5320 5317 5314 5310 5306 5302 5299 5296 5292 5288 5286 5285 5285 5285 5285
5469 5461 5451 5443 5436 5431 5423 5417 5408 5402 5396 5389 5383 5378 5372 5367 5361 5356 5351 5345 5338 5336 5334 5329 5327 5324 5318 5314 5308 5304 5302 5299 5296 5292 5289 5286 5282 5279 5276 5274 5273 5272 5272 5273
5448 5445 5435 5428 5420 5414 5407 5399 5392 5385 5377 5372 5366 5360 5356 5351 5347 5342 5337 5332 5327 5323 5319 5317 5312 5308 5304 5302 5297 5293 5290 5288 5284 5280 5277 5273 5270 5267 5265 5263 5262 5261 5262 5263
5432 5427 5419 5410 5403 5397 5392 5386 5379 5372 5366 5360 5354 5349 5344 5339 5334 5329 5325 5321 5317 5312 5310 5304 5301 5298 5296 5292 5287 5284 5281 5278 5275 5271 5267 5263 5260 5257 5254 5253 5252 5252 5254 5257
5421 5414 5407 5400 5393 5386 5380 5375 5369 5362 5357 5351 5345 5339 5334 5329 5324 5320 5315 5310 5306 5303 5302 5296 5293 5290 5287 5284 5279 5277 5273 5269 5265 5261 5257 5254 5250 5248 5246 5245 5245 5246 5249 5255
5409 5403 5397 5391 5386 5379 5374 5368 5361 5355 5350 5345 5339 5334 5329 5325 5320 5315 5310 5305 5301 5296 5293 5290 5286 5284 5281 5278 5274 5270 5265 5261 5257 5253 5250 5247 5244 5242 5241 5241 5241 5245 5250 5256
5400 5395 5390 5384 5379 5373 5367 5362 5356 5352 5347 5342 5336 5331 5325 5321 5316 5310 5306 5301 5297 5293 5289 5285 5282 5279 5276 5272 5268 5264 5261 5258 5255 5252 5249 5246 5244 5242 5241 5242 5245 5249 5253 5257
5392 5387 5382 5377 5372 5368 5364 5359 5354 5348 5343 5338 5332 5327 5322 5316 5311 5305 5299 5295 5292 5287 5284 5281 5277 5274 5270 5267 5265 5263 5261 5258 5255 5253 5250 5248 5247 5246 5246 5247 5249 5251 5253 5255
5384 5379 5375 5371 5367 5363 5359 5354 5349 5344 5339 5334 5328 5322 5317 5311 5305 5300 5296 5290 5286 5282 5280 5277 5274 5271 5269 5267 5266 5264 5262 5259 5256 5254 5251 5250 5249 5248 5248 5248 5249 5251 5252 5255
5378 5374 5370 5365 5361 5357 5353 5349 5345 5340 5334 5329 5323 5317 5311 5306 5300 5294 5289 5285 5282 5280 5277 5274 5273 5272 5271 5269 5268 5266 5264 5261 5259 5257 5255 5254 5252 5251 5250 5250 5251 5252 5253 5255
5372 5368 5363 5359 5354 5350 5346 5342 5339 5334 5330 5325 5318 5313 5307 5301 5296 5291 5287 5283 5280 5278 5276 5276 5275 5274 5273 5272 5271 5269 5268 5266 5264 5262 5261 5258 5256 5254 5254 5253 5253 5254 5255 5256
5365 5360 5356 5351 5347 5342 5338 5335 5332 5328 5323 5319 5313 5308 5303 5298 5294 5290 5286 5283 5280 5280 5280 5279 5278 5278 5276 5275 5274 5273 5272 5270 5269 5267 5266 5264 5262 5260 5259 5258 5258 5258 5259 5261
5357 5353 5348 5344 5339 5335 5331 5327 5324 5320 5316 5312 5307 5303 5299 5295 5292 5289 5286 5284 5284 5284 5283 5283 5282 5281 5280 5279 5277 5276 5275 5274 5273 5272 5271 5269 5268 5267 5266 5265 5265 5265 5265 5266